Regional Weather Roundup
Issued by NWS

Home | Current Version | Previous Version | Graphics & Text | Print | Product List | Glossary On
Versions: 1 2 3 4 5 6 7 8 9 10 11 12 13 14 15 16 17 18 19 20 21 22 23 24 25 26 27 28 29 30 31 32 33 34 35 36 37 38 39 40 41 42 43 44 45 46 47 48 49 50
000
ASUS43 KIND 201300
RWRIN

WEATHER ROUNDUP FOR INDIANA
NATIONAL WEATHER SERVICE INDIANAPOLIS IN
900 AM EDT FRI OCT 20 2017

NOTE: "FAIR" INDICATES FEW OR NO CLOUDS BELOW 12,000 FEET WITH NO
SIGNIFICANT WEATHER AND/OR OBSTRUCTIONS TO VISIBILITY.

* - STATION DOES NOT REPORT WEATHER SUCH AS PRECIPITATION OR FOG.

+ - STATION NOT QUALITY CONTROLLED BY THE NATIONAL WEATHER SERVICE.
    USE DATA WITH CAUTION...ESPECIALLY DEWPOINT AND RELATIVE
    HUMIDITY OBSERVATIONS.

INZ001>003-010>013-019-020-201400-
NORTHWEST INDIANA

CITY           SKY/WX    TMP DP  RH WIND       PRES   REMARKS
GARY /AIRPORT/ PTCLDY    57  50  77 S7        30.20R
KNOX *+        CLEAR     50  48  93 S5        30.22S
MICHIGAN CITY+ CLEAR     55  48  76 S6        30.22R
MONTICELLO +   CLEAR     53  52  95 S3        30.24R
RENSSELAER +   CLEAR     50  46  87 CALM      30.23R

$$

LMZ046-743>745-201400-
SOUTHERN LAKE MICHIGAN

STATION/POSITION TIME  TEMP    WIND        PRES    WAVE
                       AIR SEA DIR/SP/G            HT
                 (UTC) (F)     (DEG/KT/KT) (MB)    (FT)
BURNS HARBOR     1240   57     180/ 12/ 15 1022.7S
MICHIGAN CITY    1230   57     150/ 14/ 16   N/A
5NW MICH CITY    1250   57 58  190/ 12/ 14   N/A     1

$$

INZ004-005-014>016-021>024-201400-
NORTH CENTRAL INDIANA

CITY           SKY/WX    TMP DP  RH WIND       PRES   REMARKS
ELKHART        CLEAR     46  41  81 CALM      30.24R
GOSHEN         CLEAR     50  43  77 SE5       30.25R
SOUTH BEND     CLEAR     48  43  82 CALM      30.24R

$$

INZ006>009-017-018-025>027-201400-
NORTHEAST INDIANA

CITY           SKY/WX    TMP DP  RH WIND       PRES   REMARKS
FORT WAYNE     MOSUNNY   48  44  86 CALM      30.28R
KENDALLVILLE + CLEAR     49  40  71 S5        30.27R

$$

INZ028-029-035-036-043>045-051>053-201400-
WEST CENTRAL INDIANA

CITY           SKY/WX    TMP DP  RH WIND       PRES   REMARKS
LAFAYETTE      CLEAR     52  52 100 CALM      30.24S
TERRE HAUTE    CLEAR     50  49  96 CALM      30.26R

$$

INZ030>032-037>040-046>048-054>057-064-065-201400-
CENTRAL INDIANA

CITY           SKY/WX    TMP DP  RH WIND       PRES   REMARKS
ANDERSON       SUNNY     50  50 100 S6        30.28
COLUMBUS       SUNNY     46  45  93 CALM      30.30R
GREENWOOD *+   SUNNY     54  53  95 SE3       30.28S
INDIANAPOLIS   PTCLDY    52  50  93 SE5       30.28R
-EAGLE CREEK   CLEAR     51  49  92 CALM      30.27R
KOKOMO +       CLEAR     52  50  93 S5        30.27R FOG
MT COMFORT *+  SUNNY     50  50 100 CALM      30.28S
SHELBYVILLE    SUNNY     52  48  86 SE3       30.28R

$$

INZ033-034-041-042-049-050-058-059-201400-
EAST CENTRAL INDIANA

CITY           SKY/WX    TMP DP  RH WIND       PRES   REMARKS
MUNCIE         SUNNY     56  51  84 SW3       30.28R
RICHMOND +     SUNNY     50  50 100 CALM      30.30R FOG

$$

INZ060-061-067>069-081>083-085>088-201400-
SOUTHWEST INDIANA

CITY           SKY/WX    TMP DP  RH WIND       PRES   REMARKS
EVANSVILLE     CLEAR     48  48 100 CALM      30.29R
HUNTINGBURG +  SUNNY     49  49 100 CALM      30.29R FOG

$$

INZ062-063-066-070>080-084-089>092-201400-
SOUTH CENTRAL AND SOUTHEAST INDIANA

CITY           SKY/WX    TMP DP  RH WIND       PRES   REMARKS
BLOOMINGTON    CLEAR     50  47  89 CALM      30.28R FOG
MADISON *+     SUNNY     48  46  93 CALM      30.32R
SEYMOUR +      SUNNY     50  50 100 CALM      30.30R

$$





USA.gov is the U.S. government's official web portal to all federal, state and local government web resources and services.